Tracking 20083 objects as of 8-Dec-2019
HD Live streaming from Space Station
objects crossing your sky now

FENGYUN 1C DEB

Track FENGYUN 1C DEB now!
10-day predictions


NORAD ID: 31613
Int'l Code: 1999-025BZT
Perigee: 786.1 km
Apogee: 1,329.5 km
Inclination: 98.5 °
Period: 106.2 minutes
Semi major axis: 7428 km
RCS: 0.0083 m2 (small)
Launch date: May 10, 1999
Source: People's Republic of China (PRC)
Launch site: Taiyaun Space Center, China (TSC)

Note: This is SATELLITE DEBRIS
aabbcc
Your satellite tracking list
Your tracking list is empty




NASA's NSSDC Master Catalog

Two Line Element Set (TLE):
1 31613U 99025BZT 19340.75520099 +.00000034 +00000-0 +61773-4 0  9998
2 31613 098.4789 074.0309 0365720 111.8225 252.2238 13.55892628619208
Source of the keplerian elements: AFSPC